{"data":{"norad_id":69843,"intl_designator":"2026-154AA","name":"STARLINK-37579","alt_names":[],"object_type":"PAYLOAD","status":"ACTIVE","operator":null,"country":"US","launch_date":"2026-07-05","launch_site_code":"AFETR","launch_vehicle":null,"mission":null,"orbit_class":"UNKNOWN","rcs_meters":null,"size_class":null,"mass_kg":null,"dimensions":null,"purposes":["comms"],"wikipedia_slug":null,"has_3d_model":false,"image_url":null,"decayed_at":null,"tle_current":{"epoch":"2026-09-19T17:05:39.550848Z","epoch_age_seconds":85863,"freshness":"FRESH","line1":"1 69843U 26154AA  26262.71226332  .00022689  00000+0  68037-3 0  9995","line2":"2 69843  53.1583 335.6358 0001317 100.2738 259.8413 15.34411605 13111","mean_motion":15.34411605,"eccentricity":0.0001317,"inclination_deg":53.1583,"raan_deg":335.6358,"arg_perigee_deg":100.2738,"mean_anomaly_deg":259.8413,"bstar":0.00068037,"rev_number":1311,"period_min":93.847048295754,"perigee_km":461.76781380186,"apogee_km":463.56968203586,"semimajor_km":6840.8057479189,"source":"CELESTRAK","updated_at":"2026-09-20T09:00:44.297524Z"}}}